Location: The C. Gantt Observatory
(33.6981°N, 81.6836°W)
Time: 03:44:34
(UTC-04:00)

Iridium 30 - Visible Passes

Search period start: 31 October 2014 00:00
Search period end: 09 November 2014 23:00
Orbit: 776 x 779 km, 86.4° (Epoch: 30 October)

Date Brightness Start Highest point End Pass type
(mag) Time Alt. Az. Time Alt. Az. Time Alt. Az.
31 Oct 7.1 20:56:59 10° SSW 20:59:15 26° SSW 20:59:15 26° SSW visible
01 Nov 5.4 20:23:30 10° S 20:28:12 62° ESE 20:28:12 62° ESE visible
01 Nov 8.5 22:08:20 10° W 22:08:53 11° W 22:08:53 11° W visible
02 Nov 8.5 05:59:35 10° NE 06:02:18 14° ENE 06:05:00 10° ESE visible
02 Nov 6.1 18:50:39 10° SSE 18:55:15 33° E 18:59:52 10° NNE visible
02 Nov 7.7 20:31:58 10° SW 20:35:57 22° W 20:39:58 10° NNW visible
03 Nov 6.8 18:18:41 10° ESE 18:21:59 17° E 18:25:17 10° NE visible
03 Nov 6.6 19:57:22 10° SSW 20:02:16 42° W 20:07:12 10° NNW visible
04 Nov 5.5 19:23:30 10° S 19:28:42 84° W 19:33:55 10° N visible
05 Nov 8.3 05:58:38 10° NNE 06:02:33 21° E 06:06:27 10° SE visible
05 Nov 5.6 18:50:15 10° SSE 18:55:14 49° E 19:00:15 10° NNE visible
05 Nov 8.3 20:33:20 10° WSW 20:36:12 15° WNW 20:39:05 10° NW visible
06 Nov 8.8 05:27:42 10° ENE 05:28:43 11° ENE 05:29:44 10° E visible
06 Nov 6.4 18:17:41 10° SE 18:21:54 26° E 18:26:07 10° NNE visible
06 Nov 7.4 19:57:59 10° SW 20:02:26 28° W 20:06:54 10° NNW visible
07 Nov 6.1 19:23:42 10° SSW 19:28:47 56° W 19:33:54 10° N visible
08 Nov 7.5 05:58:09 10° NNE 06:02:45 31° E 06:07:20 10° SE visible
08 Nov 5.4 18:50:05 10° S 18:55:16 75° E 19:00:28 10° N visible
09 Nov 8.4 05:25:47 10° NE 05:29:00 16° ENE 05:32:12 10° ESE visible
09 Nov 6.0 18:17:05 10° SSE 18:21:51 38° E 18:26:37 10° NNE visible
09 Nov 8.0 19:58:58 10° SW 20:02:38 19° W 20:06:20 10° NW visible
